sat.trackr.live / text

‹ back to catalog

STAR VIBE

NORAD 55009 · 2023-001A

PAYLOAD ACTIVE UNKNOWN

§ Identity

Operator
Country
POL
Launch date
2023-01-03
Launch site
AFETR
Launch vehicle
Mass (kg)
RCS (m²)

External: N2YO · Heavens-Above · Gunter

§ Orbital elements

Epoch: 2026-05-25T03:17:47.937696Z

Period
93.39 min
Inclination
97.3184°
Eccentricity
0.0005887
Mean motion
15.41891842 rev/d
Perigee alt
436.5 km
Apogee alt
444.5 km
Semi-major
6,818.7 km
B*
3.1728e-4
RAAN
209.5185°
Arg perigee
180.2464°
Mean anomaly
179.8781°
Rev number
18,867

§ Raw data

STAR VIBE1 55009U 23001A   26145.13736039  .00013404  00000+0  31728-3 0  99902 55009  97.3184 209.5185 0005887 180.2464 179.8781 15.41891842188670

JSON: /api/v1/satellites/55009 · /tle

For live sub-satellite position, see the globe view (requires WebGL).

§ Visibility from observer

Set your observer location to see the next 7 days of passes ≥ 10°. The values pass through the URL so the page stays shareable.

No JS? Fill the form by hand. The geolocation button needs JavaScript.

§ Radio — SatNOGS DB

ModeDescriptionDownlinkUplink
GMSK Mode U - GMSK 4k8 AX.25 437.025 MHz

1 transmitter · refreshed weekly from db.satnogs.org